Date String (YYYY-MM-DD hh:mm:ss) UTC,Instrument flags,Ambient pressure (hPa),Sample flow (lpm),Bypass flow (lpm),Sample temperature (°C),Ambient temperature (°C),ASC tube jacket temperature (°C),LED temperature (°C),Box temperature (°C),Sample RH (%),Span deviation,Mass concentration (μg/m³),Mass concentration (μg/m³),Mass concentration (μg/m³)
DateTimeUTC,F1_M11,P_M11,Q1_M11,Q2_M11,T1_M11,T2_M11,T3_M11,T4_M11,T5_M11,U1_M11,ZSPAN_M11,X0_M11,X2_M11,X1_M11
2021-08-20 04:00:00,,0824.3,4.99,0.00,29.5,27.7,00.0,38.7,31.3,24.2,0000.0,0005.04,0001.26,0001.09
2021-08-20 04:01:00,,0824.3,5.01,0.00,29.5,27.9,00.0,38.7,31.3,24.1,0000.0,0004.85,0001.32,0001.13
2021-08-20 04:02:00,,0824.3,4.99,0.00,29.6,28.1,00.0,38.7,31.4,24.0,0000.0,0004.73,0001.35,0001.16
2021-08-20 04:03:00,,0824.3,5.01,0.00,29.6,28.3,00.0,38.7,31.4,24.0,0000.0,0004.83,0001.39,0001.19
2021-08-20 04:04:00,,0824.3,5.00,0.00,29.6,28.4,00.0,38.7,31.4,23.8,0000.0,0004.94,0001.45,0001.21
2021-08-20 04:05:00,,0824.3,5.00,0.00,29.6,28.5,00.0,38.7,31.5,23.6,0000.0,0005.06,0001.52,0001.24
2021-08-20 04:06:00,,0824.2,5.00,0.00,29.7,28.6,00.0,38.8,31.5,23.5,0000.0,0005.13,0001.57,0001.28
2021-08-20 04:07:00,,0824.2,4.99,0.00,29.7,28.7,00.0,38.8,31.5,23.5,0000.0,0005.32,0001.64,0001.34
2021-08-20 04:08:00,,0824.3,5.00,0.00,29.7,28.7,00.0,38.8,31.6,23.6,0000.0,0005.34,0001.68,0001.39
2021-08-20 04:09:00,,0824.3,5.01,0.00,29.8,28.8,00.0,38.8,31.6,23.5,0000.0,0004.43,0001.73,0001.45
2021-08-20 04:10:00,,0824.3,4.99,0.00,29.8,28.8,00.0,38.8,31.6,23.5,0000.0,0003.90,0001.77,0001.48
2021-08-20 04:11:00,,0824.3,5.01,0.00,29.8,28.8,00.0,38.8,31.7,23.7,0000.0,0002.91,0001.83,0001.52
2021-08-20 04:12:00,,0824.3,5.00,0.00,29.9,28.9,00.0,38.8,31.7,23.7,0000.0,0002.62,0001.85,0001.55
2021-08-20 04:13:00,,0824.3,4.99,0.00,29.9,28.9,00.0,38.9,31.7,23.4,0000.0,0003.30,0001.90,0001.59
2021-08-20 04:14:00,,0824.3,5.01,0.00,29.9,29.0,00.0,38.9,31.8,23.4,0000.0,0003.29,0001.90,0001.60
2021-08-20 04:15:00,,0824.3,4.99,0.00,29.9,29.0,00.0,38.9,31.7,23.5,0000.0,0003.19,0001.88,0001.61
2021-08-20 04:16:00,,0824.3,5.00,0.00,30.0,29.1,00.0,38.9,31.8,23.6,0000.0,0003.56,0001.87,0001.63
2021-08-20 04:17:00,,0824.3,5.01,0.00,30.0,29.1,00.0,39.0,31.8,23.2,0000.0,0004.11,0001.93,0001.65
2021-08-20 04:18:00,,0824.3,5.00,0.00,30.0,28.9,00.0,39.0,31.8,23.2,0000.0,0003.97,0001.90,0001.64
2021-08-20 04:19:00,,0824.2,5.00,0.00,29.9,27.2,00.0,39.0,31.3,23.2,0000.0,0003.88,0001.86,0001.63
2021-08-20 04:20:00,,0824.2,5.00,0.00,29.8,26.3,00.0,38.9,31.0,23.3,0000.0,0003.85,0001.87,0001.62
2021-08-20 04:21:00,,0824.3,5.01,0.00,29.6,26.4,00.0,38.9,31.0,23.4,0000.0,0003.80,0001.85,0001.62
2021-08-20 04:22:00,,0824.3,5.00,0.00,29.6,26.8,00.0,38.9,31.1,23.5,0000.0,0003.83,0001.84,0001.59
2021-08-20 04:23:00,,0824.2,5.00,0.00,29.6,27.2,00.0,38.8,31.1,23.6,0000.0,0003.74,0001.77,0001.53
2021-08-20 04:24:00,,0824.2,4.99,0.00,29.5,27.5,00.0,38.8,31.2,23.7,0000.0,0003.09,0001.72,0001.49
2021-08-20 04:25:00,,0824.3,5.00,0.00,29.6,27.8,00.0,38.8,31.3,23.3,0000.0,0003.03,0001.68,0001.46
2021-08-20 04:26:00,,0824.2,5.00,0.00,29.6,28.0,00.0,38.8,31.3,23.6,0000.0,0003.15,0001.69,0001.47
2021-08-20 04:27:00,,0824.2,5.00,0.00,29.6,28.2,00.0,38.8,31.4,24.3,0000.0,0002.71,0001.72,0001.50
2021-08-20 04:28:00,,0824.1,4.99,0.00,29.6,28.3,00.0,38.8,31.4,23.8,0000.0,0002.37,0001.78,0001.57
2021-08-20 04:29:00,,0824.1,5.01,0.00,29.7,28.4,00.0,38.8,31.5,23.7,0000.0,0002.56,0001.88,0001.60
2021-08-20 04:30:00,,0824.1,4.99,0.00,29.7,28.5,00.0,38.8,31.5,24.5,0000.0,0002.75,0002.00,0001.68
2021-08-20 04:31:00,,0824.1,5.00,0.00,29.7,28.6,00.0,38.8,31.5,24.3,0000.0,0002.88,0002.09,0001.77
2021-08-20 04:32:00,,0824.1,5.00,0.00,29.8,28.7,00.0,38.8,31.6,24.2,0000.0,0003.25,0002.20,0001.84
2021-08-20 04:33:00,,0824.0,4.99,0.00,29.8,28.8,00.0,38.8,31.6,24.1,0000.0,0003.44,0002.24,0001.91
2021-08-20 04:34:00,,0824.0,5.00,0.00,29.8,28.9,00.0,38.8,31.7,24.1,0000.0,0003.65,0002.39,0002.01
2021-08-20 04:35:00,,0824.0,5.01,0.00,29.8,28.9,00.0,38.9,31.7,24.1,0000.0,0003.69,0002.49,0002.10
2021-08-20 04:36:00,,0823.9,5.00,0.00,29.9,29.0,00.0,38.9,31.7,24.2,0000.0,0003.83,0002.61,0002.22
2021-08-20 04:37:00,,0824.0,4.99,0.00,29.9,29.0,00.0,38.9,31.8,24.2,0000.0,0003.90,0002.71,0002.29
2021-08-20 04:38:00,,0824.0,5.00,0.00,29.9,29.1,00.0,38.9,31.7,23.8,0000.0,0003.96,0002.76,0002.32
2021-08-20 04:39:00,,0824.0,5.00,0.00,29.9,29.1,00.0,38.9,31.8,23.7,0000.0,0003.95,0002.74,0002.30
2021-08-20 04:40:00,,0824.0,5.00,0.00,30.0,29.2,00.0,39.0,31.8,23.5,0000.0,0003.87,0002.74,0002.35
2021-08-20 04:41:00,,0824.0,5.00,0.00,30.0,28.8,00.0,39.0,31.8,23.6,0000.0,0003.81,0002.70,0002.34
2021-08-20 04:42:00,,0824.0,5.00,0.00,29.9,27.1,00.0,39.0,31.3,23.7,0000.0,0003.76,0002.67,0002.31
2021-08-20 04:43:00,,0824.0,5.00,0.00,29.7,26.2,00.0,38.9,31.0,23.9,0000.0,0003.57,0002.63,0002.30
2021-08-20 04:44:00,,0824.0,5.01,0.00,29.6,26.4,00.0,38.9,31.1,24.1,0000.0,0003.25,0002.62,0002.30
2021-08-20 04:45:00,,0824.0,5.00,0.00,29.6,26.8,00.0,38.9,31.1,24.3,0000.0,0003.20,0002.61,0002.31
2021-08-20 04:46:00,,0824.1,5.00,0.00,29.6,27.2,00.0,38.8,31.2,24.5,0000.0,0003.21,0002.62,0002.31
2021-08-20 04:47:00,,0824.1,5.00,0.00,29.6,27.5,00.0,38.8,31.3,24.5,0000.0,0003.26,0002.63,0002.30
2021-08-20 04:48:00,,0824.1,5.01,0.00,29.6,27.8,00.0,38.8,31.3,25.3,0000.0,0003.23,0002.60,0002.29
2021-08-20 04:49:00,,0824.1,5.00,0.00,29.6,28.0,00.0,38.8,31.4,25.4,0000.0,0003.26,0002.58,0002.26
2021-08-20 04:50:00,,0824.1,4.99,0.00,29.6,28.2,00.0,38.8,31.4,25.9,0000.0,0003.20,0002.53,0002.24
2021-08-20 04:51:00,,0824.1,5.00,0.00,29.7,28.4,00.0,38.8,31.4,25.1,0000.0,0003.30,0002.50,0002.19
2021-08-20 04:52:00,,0824.1,4.99,0.00,29.7,28.5,00.0,38.8,31.5,25.6,0000.0,0003.21,0002.46,0002.17
2021-08-20 04:53:00,,0824.1,5.01,0.00,29.7,28.6,00.0,38.8,31.5,26.2,0000.0,0003.15,0002.42,0002.13
2021-08-20 04:54:00,,0824.1,4.99,0.00,29.7,28.7,00.0,38.8,31.6,26.2,0000.0,0003.01,0002.35,0002.08
2021-08-20 04:55:00,,0824.1,4.99,0.00,29.8,28.8,00.0,38.8,31.6,26.2,0000.0,0003.23,0002.36,0002.04
2021-08-20 04:56:00,,0824.0,5.00,0.00,29.8,28.8,00.0,38.8,31.7,26.2,0000.0,0003.33,0002.33,0001.99
2021-08-20 04:57:00,,0824.1,5.00,0.00,29.8,28.9,00.0,38.9,31.7,25.7,0000.0,0003.48,0002.25,0001.93
2021-08-20 04:58:00,,0824.0,5.00,0.00,29.9,28.9,00.0,38.9,31.7,25.3,0000.0,0003.48,0002.20,0001.87
2021-08-20 04:59:00,,0824.0,5.00,0.00,29.9,29.0,00.0,38.9,31.7,24.9,0000.0,0003.51,0002.16,0001.83
